Location: Davayat
(45.9471°N, 3.1105°E)
Time: 18:16:01
(UTC+00:00)

BREEZE-M DEB (TANK) - Pass Details

Date: 01 December 2020
Orbit: 297 x 20370 km, 49.3° (Epoch: 22 January)

Event Time Altitude Azimuth Distance (km) Brightness Sun altitude
Rises 16:48:12 0° 239° (WSW) 3,486 9.3 -7.6°
Reaches altitude 10° 16:51:32 10° 236° (SW) 1,729 7.0 -8.2°
Maximum altitude 16:54:31 57° 156° (SSE) 392 2.1 -8.6°
Enters shadow 16:56:11 14° 77° (ENE) 986 3.5 -8.9°
